Location: Newark
(48.8833°N, 0.9236°W)
Time: 16:47:36
(UTC+00:00)

Tiros 1 despin weight - Pass Details

Date: 21 November 2019
Orbit: 594 x 642 km, 48.2° (Epoch: 12 December)

Event Time Altitude Azimuth Distance (km) Brightness Sun altitude
Rises 11:25:07 0° 194° (SSW) 2,816 ? 21.0°
Reaches altitude 10° 11:28:23 10° 169° (SSE) 1,918 ? 21.1°
Maximum altitude 11:30:37 14° 138° (SE) 1,686 ? 21.1°
Drops below altitude 10° 11:32:51 10° 107° (ESE) 1,926 ? 21.1°
Sets 11:36:08 0° 82° (E) 2,837 ? 21.1°
